www.pogodaiklimat.ru

Погода и климат >> Архив погоды >> Германия >> Шлезвиг


ПОГОДА в Шлезвиге

  • Прогноз погоды в Шлезвиге
  • Монитор погоды в Шлезвиге

АРХИВ ПОГОДЫ в Шлезвиге

Время (UTC), дата Ветер
(напр.,м/с)
 
Видим.   Явления Облачность Т
(С)
Тd
(С)
f
(%)
Тe
(С)
Тes
(С)
Комфортность P
(гПа)
Po
(гПа)
Тmin
(С)
Tmax
(С)
R
(мм)
R24
(мм)
S
(см)
07 11.07 Ю 3 25 км в посл. час дождь 9/9 800 м
[Sc]
+13.8 +10.8 82 +13 +13 1013.4 1007.7
08 11.07 ЮЗ 3 25 км в посл. час дождь 9/9 360 м
[Cu Sc]
+15.3 +11.7 79 +15 +15 1013.1 1007.4
09 11.07 Ю 3 20 км {дождь} 9/9 300 м
[Cu Sc]
+15.7 +12.3 80 +15 +16 1013.1 1007.4 0.0
10 11.07 Ю 3 18 км в посл. час дождь 9/9 400 м
[Cu Sc]
+16.1 +12.9 81 +16 +17 1012.9 1007.2
11 11.07 Ю 3 12 км в посл. час дождь 9/9 300 м
[Cu Sc]
+15.8 +13.1 84 +15 +17 1012.8 1007.1
12 11.07 Ю 3 4500 м слаб. дождь 10/10 240 м
[St]
+15.1 +14.2 94 +14 +14 1012.7 1007.0 0.4
13 11.07 Ю 3 2800 м 10/10 150 м
[]
+15.3 +14.6 96 +15 +15 1012.5 1006.8
14 11.07 Ю 3 13 км 10/10 180 м
[]
+16.2 +14.5 90 +16 +16 1012.3 1006.6
15 11.07 Ю 2 12 км {дождь, морось} 10/10 270 м
[Sc]
+17.0 +14.4 85 +17 +17 1011.9 1006.2 0.4
16 11.07 ЮВ 2 15 км 10/10 570 м
[]
+17.5 +14.5 83 +18 +18 1011.6 1005.9
17 11.07 ЮВ 2 15 км 10/10 540 м
[]
+17.6 +14.7 83 +18 +18 1011.5 1005.8
18 11.07 ЮВ 1 5000 м слаб. дождь {морось} 9/9 600 м
[]
+16.8 +15.8 94 +18 +18 1011.1 1005.4 +13.3 +17.9 3
19 11.07 ЮВ 2 9000 м слаб. морось {дождь} 10/10 630 м
[]
+16.9 +15.8 93 +17 +17 1011.0 1005.3
20 11.07 ЮЗ 2 3200 м слаб. дождь {морось} 10/10 300 м
[]
+16.0 +15.5 97 +16 +16 1011.3 1005.6
21 11.07 ЮЗ 2 3600 м дождь {морось} 9/9 660 м
[]
+15.2 +14.8 97 +15 +15 1011.2 1005.5 6
22 11.07 Ю 1 5000 м слаб. дождь 9/0
[]
+14.7 +14.5 99 +15 +15 1011.2 1005.5
23 11.07 Ю 1 1100 м дождь 9/9 90 м
[]
+14.9 +14.7 99 +15 +15 1011.0 1005.3
00 12.07 штиль 0 2700 м слаб. дождь {морось} 10/10 <50 м
[]
+14.9 +14.8 99 +15 +15 1010.5 1004.8 13
01 12.07 штиль 0 1300 м в посл. час дождь {морось} 10/10 60 м
[]
+14.6 +14.5 99 +14 +14 1010.2 1004.5
02 12.07 ЮВ 1 1900 м слаб. дождь {морось} 10/10 60 м
[]
+15.0 +15.0 100 +15 +15 1010.0 1004.3
03 12.07 ЮВ 1 2100 м в посл. час дождь {морось} 10/10 30 м
[]
+15.3 +15.2 99 +16 +16 1009.8 1004.1 0.2
04 12.07 В 1 2000 м в посл. час дождь 10/10 60 м
[St]
+15.4 +15.2 99 +16 +16 1009.6 1003.9
05 12.07 Ю 2 2000 м в посл. час дождь 10/10 60 м
[St]
+15.7 +15.4 98 +16 +16 1009.5 1003.8
06 12.07 Ю 2 3000 м дождь {морось} 10/9 50 м
[St]
+16.0 +15.4 96 +16 +16 1009.5 1003.8 +14.5 +17.0 13
07 12.07 Ю 1 7000 м в посл. час дождь {морось} 10/9 180 м
[Sc]
+16.2 +15.2 94 +17 +17 1009.6 1003.9
08 12.07 Ю 2 7000 м слаб. морось 10/9 180 м
[Cu Sc]
+16.0 +14.8 93 +16 +16 1009.7 1004.0
09 12.07 Ю 1 10 км в посл. час морось {дождь} 10/9 100 м
[Cu Sc]
+16.4 +15.1 92 +17 +18 1009.6 1003.9 0.0
10 12.07 Ю 1 20 км 10/9 300 м
[Cu Sc]
+17.6 +14.9 84 +19 +19 1009.4 1003.8
11 12.07 ЮЗ 1 30 км 10/9 600 м
[Cu Sc]
+18.5 +15.0 80 +20 +21 1009.5 1003.9
12 12.07 ЮЗ 1 35 км в посл. час морось {дождь} 10/9 480 м
[Cu Sc]
+19.9 +14.2 70 +23 +24 комфорт 1009.3 1003.7 0.0
13 12.07 Ю 2 40 км 9/8 480 м
[Cu Sc Ac trans Ci fib]
+19.8 +14.8 73 +22 +25 комфорт 1009.2 1003.6
14 12.07 ЮВ 3 35 км 9/8 700 м
[Cu Sc Ac trans]
+18.8 +14.9 78 +20 +21 1009.3 1003.7
15 12.07 В 3 25 км в посл. час дождь 9/9 1000 м
[Cu Sc]
+19.1 +15.6 80 +21 +21 комфорт 1009.3 1003.7 0.0
16 12.07 В 3 19 км слаб. морось {дождь} 10/10 450 м
[]
+18.5 +15.7 84 +19 +19 1009.3 1003.7
17 12.07 В 2 35 км в посл. час морось 10/10 800 м
[]
+18.6 +14.5 77 +20 +20 1009.5 1003.9
18 12.07 СЗ 2 30 км {дождь, морось} 10/10 600 м
[]
+18.1 +15.4 84 +19 +19 1009.9 1004.3 +16.0 +20.9 0.0
19 12.07 СЗ 3 10 км 10/10 700 м
[]
+17.3 +16.1 93 +17 +17 1010.1 1004.5
20 12.07 С 1 6000 м дымка 10/0
[]
+16.6 +15.9 96 +17 +17 1010.6 1004.9
21 12.07 С 2 6000 м дымка 10/0
[]
+15.8 +15.4 97 +16 +16 1011.0 1005.3
22 12.07 С 2 4400 м дымка 9/0
[]
+15.1 +14.6 97 +15 +15 1011.4 1005.7
23 12.07 СЗ 2 2800 м дымка 1/0
[]
+14.4 +14.1 98 +14 +14 1011.7 1006.0
00 13.07 С 2 4100 м дымка 10/10 1500 м
[]
+14.2 +13.8 97 +14 +14 1011.8 1006.1
01 13.07 С 2 4000 м дымка 9/0
[]
+14.0 +13.6 97 +13 +13 1011.7 1006.0
02 13.07 С 2 5000 м дымка 4/0
[]
+13.8 +13.4 97 +13 +13 1012.0 1006.3
03 13.07 СЗ 3 4900 м дымка 10/10 1320 м
[]
+13.9 +13.5 97 +13 +13 1012.1 1006.4
04 13.07 СЗ 2 3000 м дымка 6/4 1300 м
[Sc Ac trans]
+13.6 +13.3 98 +13 +13 1012.4 1006.7
05 13.07 СЗ 3 3500 м дымка 9/6 60 м
[Sc Ac trans]
+14.2 +13.8 97 +13 +13 1012.8 1007.1
06 13.07 СЗ 3 10 км 9/8 50 м
[Sc Ac trans]
+15.2 +14.2 94 +14 +15 1013.2 1007.5 +13.3 +18.1
07 13.07 СЗ 4 15 км 9/9 90 м
[Sc]
+16.1 +14.5 90 +15 +16 1013.8 1008.1
08 13.07 СЗ 3 15 км 10/9 120 м
[Sc]
+17.0 +14.9 87 +17 +17 1014.2 1008.5
09 13.07 СЗ 2 15 км 10/10 100 м
[St]
+16.8 +15.3 91 +17 +17 1014.5 1008.8
10 13.07 СЗ 3 10 км 9/9 150 м
[St]
+16.9 +15.3 90 +17 +18 1015.1 1009.4
11 13.07 СЗ 3 10 км 9/9 180 м
[St]
+17.5 +15.2 86 +18 +19 1015.2 1009.5
12 13.07 СЗ 4 20 км 9/9 240 м
[St]
+18.1 +15.0 82 +18 +19 1015.3 1009.6 418
13 13.07 З 4 25 км 9/9 400 м
[Sc]
+18.7 +14.8 78 +19 +20 1015.4 1009.7
14 13.07 З 4 30 км 9/9 480 м
[Sc]
+20.0 +14.6 71 +22 +23 комфорт 1015.1 1009.5
15 13.07 З 5 35 км 9/9 600 м
[Sc]
+20.7 +15.1 70 +24 +24 комфорт 1015.1 1009.5
16 13.07 З 5 40 км 9/9 720 м
[]
+18.9 +13.0 69 +20 +20 1015.1 1009.4
17 13.07 З 5 40 км 3/3 700 м
[]
+17.9 +12.3 70 +18 +19 1015.1 1009.4
18 13.07 З 4 н/о 9/9 300 м
[]
+16.7 +12.1 74 +16 +16 1015.5 1009.8 +15.1 +21.2
19 13.07 СЗ 3 40 км 10/10 570 м
[]
+15.9 +11.8 77 +15 +15 1015.9 1010.2
20 13.07 СЗ 4 30 км 10/10 570 м
[]
+15.0 +11.2 78 +14 +14 1016.3 1010.6
21 13.07 З 3 30 км 10/10 570 м
[]
+14.5 +11.3 81 +14 +14 1016.7 1010.9
22 13.07 З 3 25 км 10/10 480 м
[]
+14.1 +11.7 85 +13 +13 1016.7 1010.9
00 14.07 З 2 19 км в посл. час морось 9/9 300 м
[]
+13.3 +11.7 90 +13 +13 1016.7 1010.9 0.0
02 14.07 З 3 13 км в посл. час морось 10/10 240 м
[]
+12.9 +11.8 93 +11 +11 1016.4 1010.6
03 14.07 З 2 14 км слаб. морось 10/10 210 м
[]
+12.9 +11.7 92 +12 +12 1016.3 1010.5 0.0
04 14.07 З 2 9000 м слаб. морось 10/9 330 м
[St]
+12.9 +11.7 92 +12 +12 1016.5 1010.7
05 14.07 З 2 15 км в посл. час морось 10/9 500 м
[Sc]
+13.2 +11.0 87 +12 +13 1016.6 1010.8
06 14.07 З 2 16 км в посл. час морось 10/9 300 м
[Sc]
+13.4 +11.4 88 +13 +13 1016.7 1010.9 +12.8 +16.7 0.0
07 14.07 З 3 18 км в посл. час морось 10/9 450 м
[Sc]
+13.9 +11.3 84 +13 +13 1016.9 1011.1
08 14.07 З 2 18 км слаб. морось 10/9 480 м
[Sc]
+14.3 +11.3 82 +14 +14 1017.2 1011.4
09 14.07 З 2 20 км в посл. час морось 10/10 300 м
[Sc]
+14.8 +11.3 80 +14 +14 1017.3 1011.5 0.0
10 14.07 З 3 25 км в посл. час морось 10/10 540 м
[Sc]
+15.5 +11.5 77 +15 +15 1017.3 1011.6
11 14.07 З 3 18 км слаб. морось 10/9 450 м
[Cu Sc]
+15.1 +12.2 83 +14 +15 1017.6 1011.9
12 14.07 З 4 25 км слаб. морось 10/9 480 м
[Cu Sc]
+15.9 +12.5 80 +15 +16 1017.5 1011.8 0.0
13 14.07 З 4 22 км слаб. морось 10/9 360 м
[Cu Sc]
+15.5 +12.7 83 +15 +15 1017.6 1011.9
14 14.07 З 4 22 км в посл. час морось 10/9 500 м
[Sc]
+15.9 +12.2 79 +15 +15 1017.4 1011.7
15 14.07 З 4 22 км в посл. час морось 10/9 540 м
[Sc]
+15.7 +12.1 79 +15 +15 1017.3 1011.6 0.0
16 14.07 З 3 27 км в посл. час морось 10/10 500 м
[]
+15.4 +12.4 82 +15 +15 1017.1 1011.4
17 14.07 З 4 26 км в посл. час морось 10/10 450 м
[]
+15.1 +12.0 82 +14 +14 1017.1 1011.4
18 14.07 З 3 н/о {морось} 10/10 300 м
[]
+14.6 +11.8 83 +14 +14 1017.1 1011.3 +13.4 +16.5 0.0
19 14.07 З 3 25 км 10/10 540 м
[]
+14.4 +11.4 82 +13 +13 1017.0 1011.2
20 14.07 З 3 24 км 10/10 500 м
[]
+13.9 +11.2 84 +13 +13 1017.3 1011.5
21 14.07 СЗ 3 27 км 10/10 540 м
[]
+13.3 +10.1 81 +12 +12 1017.4 1011.6
22 14.07 З 3 29 км 10/10 500 м
[]
+13.2 +10.2 82 +12 +12 1017.4 1011.6
23 14.07 СЗ 3 28 км 10/10 500 м
[]
+13.0 +9.7 80 +12 +12 1017.4 1011.6
00 15.07 З 3 27 км 10/10 300 м
[]
+12.8 +9.7 81 +11 +11 1017.2 1011.4
01 15.07 З 4 30 км 10/10 500 м
[]
+12.7 +9.4 80 +11 +11 1016.8 1011.0
02 15.07 З 3 30 км 10/10 540 м
[]
+12.7 +9.4 80 +11 +11 1016.7 1010.9
03 15.07 СЗ 3 30 км 10/10 570 м
[]
+12.5 +8.8 78 +11 +11 1016.5 1010.7
04 15.07 З 4 25 км 10/10 540 м
[Sc]
+12.6 +9.3 80 +11 +11 1016.4 1010.6
05 15.07 З 3 25 км 9/9 540 м
[Sc]
+12.7 +9.3 80 +11 +11 1016.3 1010.5
06 15.07 З 5 25 км 9/9 600 м
[Sc]
+13.1 +8.9 76 +11 +11 1016.2 1010.4 +12.5 +14.6
07 15.07 З 4 25 км 10/10 570 м
[Sc]
+13.6 +9.6 77 +12 +12 1016.2 1010.4
08 15.07 З 5 22 км 10/10 630 м
[Sc]
+14.1 +9.5 74 +12 +12 1016.0 1010.2
09 15.07 З 5 30 км 10/10 600 м
[Sc]
+14.2 +9.5 73 +13 +13 1015.9 1010.1
10 15.07 З 5 30 км 10/10 700 м
[Sc]
+15.2 +9.7 70 +14 +14 1015.6 1009.9
11 15.07 З 6 30 км 10/9 700 м
[Sc]
+15.6 +10.1 70 +14 +14 1015.6 1009.9
12 15.07 З 7 30 км 10/9 700 м
[Sc]
+14.8 +10.1 73 +13 +13 1015.5 1009.8
13 15.07 З 7 30 км 10/9 630 м
[Sc]
+15.1 +9.9 71 +13 +13 1015.3 1009.6
14 15.07 З 7 24 км 10/9 660 м
[Cu Sc]
+16.0 +10.9 72 +15 +15 1014.9 1009.2
15 15.07 З 6 28 км 9/9 720 м
[Sc]
+16.4 +10.9 70 +15 +16 1014.7 1009.0
16 15.07 З 6 27 км в посл. час морось 10/10 540 м
[]
+15.3 +11.2 77 +14 +14 1014.6 1008.9
17 15.07 З 6 27 км 10/10 540 м
[]
+15.2 +11.6 79 +14 +14 1014.5 1008.8
18 15.07 З 6 30 км {морось} 10/10 300 м
[]
+14.9 +11.3 79 +13 +13 1014.5 1008.8 +13.1 +16.9 0.0
19 15.07 З 4 25 км 10/10 540 м
[]
+14.7 +11.5 81 +13 +13 1014.4 1008.7
20 15.07 З 6 26 км 10/10 480 м
[]
+14.4 +11.3 82 +12 +12 1014.5 1008.8
21 15.07 СЗ 5 28 км 10/10 480 м
[]
+14.0 +11.0 82 +12 +12 1014.8 1009.0
22 15.07 СЗ 5 28 км 10/10 450 м
[]
+13.9 +11.2 84 +12 +12 1014.6 1008.8
23 15.07 СЗ 6 30 км 10/10 420 м
[]
+13.8 +11.1 84 +12 +12 1014.4 1008.6
00 16.07 СЗ 5 30 км 9/9 300 м
[]
+13.8 +11.4 85 +12 +12 1014.5 1008.7
01 16.07 СЗ 6 35 км 10/10 330 м
[]
+13.7 +11.4 86 +12 +12 1014.4 1008.6
02 16.07 СЗ 4 35 км в посл. час морось 10/10 330 м
[]
+13.7 +11.7 88 +12 +12 1014.4 1008.6
03 16.07 З 4 45 км в посл. час морось {дымка} 10/10 180 м
[]
+13.0 +12.2 95 +11 +11 1014.1 1008.3 0.0
04 16.07 З 5 3000 м слаб. морось 10/10 150 м
[St]
+13.1 +12.7 97 +11 +11 1013.9 1008.1
05 16.07 З 4 4500 м в посл. час морось 9/9 180 м
[St]
+13.5 +13.0 97 +12 +12 1013.9 1008.1
06 16.07 З 4 12 км слаб. морось 9/9 100 м
[St]
+14.0 +13.0 94 +12 +13 1013.8 1008.1 +12.9 +14.9 0.2
07 16.07 СЗ 6 25 км в посл. час морось 9/9 210 м
[St]
+14.4 +12.6 89 +12 +13 1013.9 1008.2
08 16.07 З 5 25 км слаб. морось 9/9 270 м
[St]
+14.9 +12.4 85 +13 +14 1013.9 1008.2
09 16.07 З 6 30 км в посл. час морось 9/9 300 м
[Cu Sc]
+16.4 +12.6 78 +15 +16 1013.9 1008.2 0.0
10 16.07 З 7 30 км 8/8 360 м
[Cu Sc]
+18.4 +12.8 70 +18 +19 1013.9 1008.2
11 16.07 З 7 30 км 6/6 420 м
[Cu Sc]
+19.6 +12.8 65 +21 +22 комфорт 1013.9 1008.3
12 16.07 З 6 30 км {морось} 3/3 480 м
[Cu Sc]
+20.1 +12.8 63 +22 +26 комфорт 1013.9 1008.3
13 16.07 З 6 30 км 3/1 630 м
[Cu hum Ci fib]
+19.9 +12.5 62 +21 +26 комфорт 1014.1 1008.5
14 16.07 З 5 30 км 3/1 750 м
[Cu hum Ci fib]
+20.5 +12.8 61 +23 +28 комфорт 1014.4 1008.8
15 16.07 З 6 30 км 3/1 720 м
[Cu hum Ci fib]
+20.0 +12.6 62 +21 +24 комфорт 1014.4 1008.8
17 16.07 З 5 30 км 9/9 570 м
[]
+18.0 +12.3 69 +18 +18 1014.7 1009.0
18 16.07 З 5 30 км 9/9 300 м
[]
+16.1 +12.0 77 +15 +15 1014.9 1009.2 +13.9 +20.8 0.0
19 16.07 З 5 30 км 10/10 450 м
[]
+14.8 +11.4 80 +13 +13 1015.2 1009.5
20 16.07 З 3 30 км 9/9 400 м
[]
+13.9 +11.3 84 +13 +13 1015.6 1009.8
21 16.07 З 4 30 км 9/9 360 м
[]
+13.2 +10.8 85 +11 +11 1015.7 1009.9
22 16.07 З 5 30 км 10/10 330 м
[]
+13.1 +10.7 85 +11 +11 1015.8 1010.0
23 16.07 З 4 28 км 10/10 330 м
[]
+12.9 +10.8 87 +11 +11 1015.7 1009.9
00 17.07 З 3 30 км 10/10 300 м
[]
+13.0 +11.0 88 +12 +12 1015.8 1010.0
01 17.07 З 4 30 км 10/10 300 м
[]
+13.1 +10.8 86 +11 +11 1015.7 1009.9
02 17.07 СЗ 3 30 км 10/10 270 м
[]
+13.1 +11.1 88 +12 +12 1015.5 1009.7
03 17.07 СЗ 3 29 км 10/10 240 м
[]
+13.0 +11.2 89 +12 +12 1015.3 1009.5
04 17.07 СЗ 1 25 км 10/10 210 м
[St]
+12.9 +11.3 90 +13 +13 1015.6 1009.8
05 17.07 СЗ 2 12 км 10/10 210 м
[St]
+13.0 +11.6 91 +12 +12 1015.4 1009.6
06 17.07 СЗ 2 20 км в посл. час морось 10/10 200 м
[St]
+13.1 +11.4 89 +12 +12 1015.4 1009.6 +12.8 +16.2 0.0
07 17.07 СЗ 1 28 км 10/10 210 м
[St]
+13.3 +11.0 86 +13 +13 1015.5 1009.7
08 17.07 СЗ 1 30 км 10/10 270 м
[St]
+14.3 +11.6 84 +15 +15 1015.7 1009.9
09 17.07 З 1 30 км 10/10 300 м
[Cu Sc]
+15.4 +12.0 80 +16 +16 1015.7 1010.0
10 17.07 ЮЗ 2 30 км 10/10 400 м
[Cu Sc]
+15.5 +11.6 78 +15 +15 1015.7 1010.0
11 17.07 З 1 30 км 9/9 480 м
[Cu Sc]
+16.4 +11.9 75 +17 +19 1015.7 1010.0
12 17.07 ЮЗ 3 28 км 8/4 540 м
[Cu Sc Ac trans Ci sp]
+18.1 +12.6 70 +18 +23 1015.4 1009.7
13 17.07 З 3 30 км 6/3 540 м
[Cu Sc Ac trans Ci sp]
+18.5 +12.6 68 +19 +25 1015.3 1009.6
14 17.07 ЮЗ 3 30 км 4/1 630 м
[Cu hum Ac trans Ci sp]
+19.6 +13.2 67 +21 +28 комфорт 1015.0 1009.4
15 17.07 ЮЗ 2 30 км 3/1 700 м
[Cu hum Ac trans Ci sp]
+20.1 +13.3 65 +23 +29 комфорт 1014.6 1009.0
16 17.07 ЮЗ 2 40 км 1/0
[]
+20.1 +13.3 65 +23 +28 комфорт 1014.2 1008.6
17 17.07 З 2 40 км 9/9 750 м
[]
+19.4 +12.9 66 +21 +22 комфорт 1013.9 1008.3
18 17.07 З 2 40 км ясно +18.7 +13.6 72 +20 +21 1013.9 1008.2 +13.1 +20.6
19 17.07 З 3 40 км 1/0
[]
+17.3 +13.2 77 +17 +17 1014.1 1008.4
21 17.07 СЗ 2 25 км ясно +14.2 +12.6 90 +14 +14 1014.0 1008.3
22 17.07 СЗ 2-3
{3}
22 км ясно +13.1 +12.0 93 +12 +12 1014.2 1008.4
00 18.07 СЗ 2 13 км ясно +12.4 +11.8 96 +11 +11 1014.1 1008.3
01 18.07 СЗ 2-2
{3}
11 км ясно +11.8 +11.4 97 +11 +11 1013.8 1008.0
02 18.07 СВ 1-1
{2}
13 км ясно +11.2 +10.9 98 +11 +11 1013.4 1007.6
03 18.07 В 2 10 км ясно +10.9 +10.8 99 +9 +9 1013.2 1007.4
05 18.07 ЮВ 1 10 км 3/0
[Ci fib]
+13.1 +12.7 97 +13 +15 1013.1 1007.3
06 18.07 ЮВ 2 15 км 4/0
[Ci fib]
+15.0 +13.8 93 +15 +18 1012.9 1007.2 +10.7 +18.7

 

Местоположение метеостанции Шлезвиг (Германия): широта 54.53 долгота 9.55 высота над уровнем моря 43 м.

В архиве по умолчанию представлена погода в Шлезвиге за последнюю неделю. Архивные данные за месяц целиком и за предыдущие месяцы, начиная с января 2011 года, Вы можете получить, выбрав интересующий диапазон дат из раскрывающегося списка и нажав кнопку "Ввод!".


*Определитесь, кто Вы:
робот инопланетянин человек

Внимание! Время в таблицах - всемирное. Для получения местного времени необходимо прибавить поправку, которая равна 1 ч.

Смотрите также архив погоды в соседних городах и на ближайших метеорологических станциях:

Погода в Шлезвиг аэропорту (Германия) (7 км)
Погода в Хоне (Германия) (23 км)
Погода в Глюксбурге (Германия) (34 км)
Погода в Ольпенице (Германия) (35 км)
Погода в Киле (Германия) (42 км)
Погода на Мысе Kegnaes (Дания) (45 км)
Погода в Киль маяке (Германия) (47 км)
Погода в Леке (Германия) (49 км)
Погода в Итцехоэ (Германия) (61 км)
Погода в Эльперсбюттеле (Германия) (62 км)

Пояснения к столбцам:

Ветер - указаны скорость ветра в м/с - средняя за 10 мин, порывы в срок и между сроками (в фигурных скобках) и направление, откуда дует ветер: С - северный, СВ - северо-восточный, В - восточный, ЮВ - юго-восточный, Ю - южный, ЮЗ - юго-западный, З - западный, СЗ - северо-западный.
Видимость - горизонтальная дальность видимости в метрах или километрах. При видимости от 1 до 10 км при отсутствии осадков обычно наблюдается дымка, при ухудшении видимости до 1 км и менее - туман. В сухую погоду видимость может ухудшаться дымом, пылью или мглою.
Явления - указаны атмосферные явления, наблюдавшиеся в срок или в последний час перед сроком; фигурными скобками обозначены явления, наблюдавшиеся между сроками (за 1-3 часа до срока); квадратными скобками обозначены град или гололедные отложения с указанием их диаметра в мм.
Облачность - указаны через наклонную черту общая и нижняя облачность в баллах и высота нижней границы облаков в метрах; квадратными скобками обозначены формы облаков: Ci - перистые, Cs - перисто-слоистые, Cc - перисто-кучевые, Ac - высококучевые, As - высокослоистые, Sc - слоисто-кучевые, Ns - слоисто-дождевые, Cu - кучевые, Cb - кучево-дождевые. Подробнее классификацию облаков см. в Атласе облаков (PDF).
T - Температура воздуха - температура, измеренная на высоте 2 м над землей.
Td - Температура точки росы - температура, при понижении до которой содержащийся в воздухе водяной пар достигнет насыщения.
f - Относительная влажность воздуха - влажноcть воздуха, измеренная на высоте 2 м над землей.
Te - Эффективная температура - температура, которую ощущает одетый по сезону человек в тени. Характеристика душности погоды. При расчете учитывается влияние влажности воздуха и скорости ветра на теплоощущения человека.
Tes - Эффективная температура на солнце - температура, которую ощущает человек, с поправкой на солнечный нагрев. Характеристика знойности погоды. Зависит от высоты солнца над горизонтом, облачности и скорости ветра. Ночью, в пасмурную погоду, а также при ветре 12 м/с и более поправка равна нулю.
P - Атмосферное давление - приведенное к уровню моря атмосферное давление.
Po - Атмосферное давление - измеренное на уровне метеостанции атмосферное давление.
Tmin - Минимальная температура - минимум температуры воздуха на высоте 2 м над землей.
Tmax - Максимальная температура - максимум температуры воздуха на высоте 2 м над землей.
R - Количество осадков - Количество выпавших осадков за период времени, мм. При наведении курсора мыши на число - период времени, за который выпало указанное количество осадков.
R24 - Количество осадков - Количество выпавших осадков за 24 часа, мм.
S - Снежный покров - Высота снежного покрова, см. При наведении курсора мыши на число - состояние снежного покрова и степень покрытия местности в баллах.